Regional Weather Roundup
Issued by NWS Boston, MA

Home | Current Version | Previous Version | Text Only | Print | Product List | Glossary On
Versions: 1 2 3 4 5 6 7 8 9 10 11 12 13 14 15 16 17 18 19 20 21 22 23 24 25 26 27 28 29 30 31 32 33 34 35 36 37 38 39 40 41 42 43 44 45 46 47 48
000
ASUS41 KBOX 200210
RWRBOX

REGIONAL WEATHER ROUNDUP
NATIONAL WEATHER SERVICE TAUNTON MA
1000 PM EDT FRI SEP 19 2014

NOTE:  "FAIR" INDICATES FEW OR NO CLOUDS BELOW 12,000 FEET WITH NO
SIGNIFICANT WEATHER AND/OR OBSTRUCTIONS TO VISIBILITY.  THE FOLLOWING
OBSERVATION LOCATIONS DO NOT REPORT PRESENT WEATHER...PROVINCETOWN...
SMITHFIELD...BLOCK ISLAND...KEENE...AND OXFORD.

MAZALL-200300-
EASTERN MASSACHUSETTS

CITY           SKY/WX    TMP DP  RH WIND       PRES   REMARKS
BOSTON         CLEAR     51  35  54 SE9       30.43S
BEVERLY        CLEAR     38  33  82 CALM      30.42S
LAWRENCE       CLEAR     46  33  60 SE3       30.44F
BEDFORD        CLEAR     38  35  89 CALM      30.41F
BLUE HILL        N/A     46  33  60 SE9       30.41S
NORWOOD        CLEAR     36  33  89 CALM      30.43S
MARSHFIELD     NOT AVBL
PLYMOUTH       CLEAR     38  33  82 CALM      30.44R
TAUNTON        CLEAR     36  33  89 CALM      30.43S
NEW BEDFORD    CLEAR     40  38  93 CALM      30.43R
$$

MAZALL-200300-
CAPE COD AND THE ISLANDS

CITY           SKY/WX    TMP DP  RH WIND       PRES   REMARKS
FALMOUTH       CLEAR     41  36  81 NE5       30.43S
HYANNIS        CLEAR     41  36  82 NE3       30.42F
CHATHAM        CLEAR     48  37  65 E3        30.44F
PROVINCETOWN   CLEAR     37  30  75 E3        30.44S
NANTUCKET      CLEAR     47  37  68 E8        30.43S
MARTHAS VNYRD  CLEAR     33  31  92 CALM      30.43S
$$

MAZALL-200300-
CENTRAL AND WESTERN MASSACHUSETTS

CITY           SKY/WX    TMP DP  RH WIND       PRES   REMARKS
WORCESTER      CLEAR     45  34  65 SE6       30.41S
FITCHBURG      CLEAR     43  37  79 CALM      30.43S
ORANGE         CLEAR     41  38  89 CALM      30.41R
SPRINGFIELD    CLEAR     49  38  66 SE6       30.39S
WESTFIELD      CLEAR     41  39  93 SW3       30.40R
NORTH ADAMS    CLEAR     47  37  68 VRB6      30.37S
PITTSFIELD     CLEAR     42  38  85 CALM      30.36S
$$

RIZALL-200300-
RHODE ISLAND

CITY           SKY/WX    TMP DP  RH WIND       PRES   REMARKS
PROVIDENCE     CLEAR     50  38  63 CALM      30.44R
NEWPORT        CLEAR     49  37  63 E7        30.42S
BLOCK ISLAND   CLEAR     54  39  58 E8        30.41F
SMITHFIELD     CLEAR     39  28  65 CALM      30.42R
WESTERLY       CLEAR     48  41  76 N5        30.43R
$$

CTZALL-200300-
CONNECTICUT

CITY           SKY/WX    TMP DP  RH WIND       PRES   REMARKS
BRADLEY INTL   CLEAR     51  41  68 S6        30.40R
HARTFORD       CLEAR     51  43  74 SE8       30.41R
BRIDGEPORT     CLEAR     59  44  57 SE12      30.40R
DANBURY        MOCLDY    53  44  71 S6        30.40S
GROTON         CLEAR     50  42  74 E9        30.41S
NEW HAVEN      CLEAR     59  43  55 SE9       30.40S
CHESTER        FAIR      48  43  81 CALM      30.41S
MERIDEN        CLEAR     46  42  86 CALM      30.40S
WILLIMANTIC    CLEAR     46  41  82 CALM      30.43R
OXFORD         CLEAR     50  39  66 SE6       30.41S
$$

MEZ002-015-021-024-NHZ003-005-008-011-012-014-VTZ005-008-200300-
NORTHERN NEW ENGLAND

CITY           SKY/WX    TMP DP  RH WIND       PRES   REMARKS
PORTLAND ME    CLEAR     43  35  73 SW6       30.42S
BANGOR ME      MOCLDY    45  33  63 S9        30.40S
CONCORD NH     CLEAR     43  32  65 CALM      30.41S
MANCHESTER NH  CLEAR     46  31  55 VRB3      30.41S
NASHUA NH      CLEAR     45  35  67 CALM      30.42F
PORTSMOUTH NH  CLEAR     41  32  72 S3        30.41F
JAFFREY NH     CLEAR     42  35  76 CALM      30.40S
KEENE NH       CLEAR     39  32  75 CALM      30.40S
BURLINGTON VT  PTCLDY    49  35  58 S7        30.27F
MT. WASHINGTON MOCLDY    34  19  55 SW25        N/A  WCI  21
$$

NYZ052-076-200300-
EASTERN NEW YORK

CITY           SKY/WX    TMP DP  RH WIND       PRES   REMARKS
ALBANY         PTCLDY    53  37  54 S8        30.34R
NEW YORK CITY  CLOUDY    60  46  59 SE12      30.38S
$$

ANZALL-200300-
MARINE OBSERVATIONS

STATION/POSITION TIME  TEMP    WIND        PRES    VSBY  WAVE
                       AIR SEA DIR/SP/G                  HT/PER
                 (UTC) (F)     (DEG/KT/KT) (MB)    (MI)  (FT/S)
BOSTON BUOY      0150   53 60  160/  6/ 10 1030.6F         4/ 6
BUZZARDS BAY     0100           70/ 12/ 14 1031.1R
NANTUCKET SOUND  0150   55 67   90/ 10/ 16 1030.1F         2/ 6
MASS BAY-STELLWA 0104   53 60  150/  8/ 10   N/A    1 7/8  3/ 6
ISLE OF SHOALS   0200   52     170/ 13/ 14 1029.7F
S OF BLOCK IS    0108      67                N/A           3/ 7
$$

......................KEY.........................
  SKY/WX - SKY CONDITION/PRESENT WEATHER
  TMP    - TEMPERATURE IN FAHRENHEIT
  DWPT   - DEWPOINT IN FAHRENHEIT
  RH     - RELATIVE HUMIDITY IN PERCENT
  WIND   - DIRECTION AND SPEED IN MPH
  PRES   - MEAN SEA LEVEL PRESSURE IN INCHES OF HG
  WCI    - WIND CHILL INDEX
  VSB    - VISIBILITY IN MILES
  HX     - HEAT INDEX
  TC     - TEMPERATURE IN CELSIUS
  VRB    - VARIABLE WIND DIRECTION
  N/A    - NOT AVAILABLE



USA.gov is the U.S. government's official web portal to all federal, state and local government web resources and services.